Time,TemperatureF,DewpointF,PressureIn,WindDirection,WindDirectionDegrees,WindSpeedMPH,WindSpeedGustMPH,Humidity,HourlyPrecipIn,Conditions,Clouds,dailyrainin,SoftwareType,DateUTC
2013-04-15 00:03:00,48.0,38.0,30.08,East,101,1.0,-999.0,67,-99.99,,,-99.99,,2013-04-15 04:03:00,
2013-04-15 00:13:00,48.0,38.0,30.08,East,101,1.0,-999.0,67,-99.99,,,-99.99,,2013-04-15 04:13:00,
2013-04-15 00:23:00,48.0,38.0,30.08,East,101,1.0,-999.0,67,-99.99,,,-99.99,,2013-04-15 04:23:00,
2013-04-15 00:33:00,48.0,36.0,30.09,East,93,2.0,-999.0,63,-99.99,,,-99.99,,2013-04-15 04:33:00,
2013-04-15 00:43:00,48.0,36.0,30.09,East,93,2.0,-999.0,63,-99.99,,,-99.99,,2013-04-15 04:43:00,
2013-04-15 00:53:00,48.0,36.0,30.09,East,85,1.0,-999.0,63,-99.99,,,-99.99,,2013-04-15 04:53:00,
2013-04-15 01:03:00,48.0,36.0,30.09,ESE,102,2.0,-999.0,63,-99.99,,,-99.99,,2013-04-15 05:03:00,
2013-04-15 01:13:00,48.0,36.0,30.09,ESE,102,2.0,-999.0,63,-99.99,,,-99.99,,2013-04-15 05:13:00,
2013-04-15 01:23:00,48.0,36.0,30.09,East,92,3.0,-999.0,62,-99.99,,,-99.99,,2013-04-15 05:23:00,
2013-04-15 01:33:00,48.0,36.0,30.09,ENE,64,3.0,-999.0,63,-99.99,,,-99.99,,2013-04-15 05:33:00,
2013-04-15 01:42:00,48.0,36.0,30.09,ENE,64,3.0,-999.0,63,-99.99,,,-99.99,,2013-04-15 05:42:00,
2013-04-15 01:53:00,48.0,36.0,30.09,ENE,65,4.0,-999.0,62,-99.99,,,-99.99,,2013-04-15 05:53:00,
2013-04-15 02:02:00,48.0,36.0,30.10,ESE,119,4.0,-999.0,62,-99.99,,,-99.99,,2013-04-15 06:02:00,
2013-04-15 02:12:00,48.0,36.0,30.10,ESE,119,4.0,-999.0,62,-99.99,,,-99.99,,2013-04-15 06:12:00,
2013-04-15 02:23:00,48.0,36.0,30.10,ESE,119,4.0,-999.0,62,-99.99,,,-99.99,,2013-04-15 06:23:00,
2013-04-15 02:33:00,47.0,35.0,30.11,ESE,108,3.0,-999.0,62,-99.99,,,-99.99,,2013-04-15 06:33:00,
2013-04-15 02:35:00,47.0,35.0,30.12,East,88,3.0,-999.0,64,-99.99,,,-99.99,,2013-04-15 06:35:00,
2013-04-15 02:42:00,47.0,35.0,30.11,ESE,108,3.0,-999.0,62,-99.99,,,-99.99,,2013-04-15 06:42:00,
2013-04-15 02:52:00,47.0,36.0,30.12,ESE,120,4.0,-999.0,65,-99.99,,,-99.99,,2013-04-15 06:52:00,
2013-04-15 03:03:00,47.0,35.0,30.12,East,88,3.0,-999.0,64,-99.99,,,-99.99,,2013-04-15 07:03:00,
2013-04-15 03:42:00,46.0,34.0,30.12,ESE,117,4.0,-999.0,63,-99.99,,,-99.99,,2013-04-15 07:42:00,
2013-04-15 03:53:00,46.0,34.0,30.14,SE,125,4.0,-999.0,63,-99.99,,,-99.99,,2013-04-15 07:53:00,
2013-04-15 04:03:00,46.0,35.0,30.15,ENE,64,3.0,-999.0,64,-99.99,,,-99.99,,2013-04-15 08:03:00,
2013-04-15 04:14:00,46.0,35.0,30.15,ENE,64,3.0,-999.0,64,-99.99,,,-99.99,,2013-04-15 08:14:00,
2013-04-15 04:22:00,46.0,35.0,30.15,ESE,117,3.0,-999.0,64,-99.99,,,-99.99,,2013-04-15 08:22:00,
2013-04-15 04:34:00,46.0,34.0,30.16,East,97,3.0,-999.0,63,-99.99,,,-99.99,,2013-04-15 08:34:00,
2013-04-15 04:43:00,46.0,34.0,30.16,East,97,3.0,-999.0,63,-99.99,,,-99.99,,2013-04-15 08:43:00,
2013-04-15 04:52:00,46.0,35.0,30.16,ESE,114,2.0,-999.0,64,-99.99,,,-99.99,,2013-04-15 08:52:00,
2013-04-15 05:03:00,46.0,35.0,30.16,East,98,1.0,-999.0,65,-99.99,,,-99.99,,2013-04-15 09:03:00,
2013-04-15 05:13:00,46.0,35.0,30.16,East,98,1.0,-999.0,65,-99.99,,,-99.99,,2013-04-15 09:13:00,
2013-04-15 05:23:00,45.0,34.0,30.16,ESE,113,1.0,-999.0,66,-99.99,,,-99.99,,2013-04-15 09:23:00,
2013-04-15 05:33:00,45.0,34.0,30.17,East,96,1.0,-999.0,66,-99.99,,,-99.99,,2013-04-15 09:33:00,
2013-04-15 05:43:00,45.0,34.0,30.17,East,96,1.0,-999.0,66,-99.99,,,-99.99,,2013-04-15 09:43:00,
2013-04-15 05:53:00,45.0,34.0,30.17,East,88,2.0,-999.0,66,-99.99,,,-99.99,,2013-04-15 09:53:00,
2013-04-15 06:03:00,45.0,34.0,30.17,ESE,122,0.0,-999.0,66,-99.99,,,-99.99,,2013-04-15 10:03:00,
2013-04-15 06:13:00,45.0,34.0,30.17,ESE,122,0.0,-999.0,66,-99.99,,,-99.99,,2013-04-15 10:13:00,
2013-04-15 06:23:00,45.0,34.0,30.17,ESE,121,0.0,-999.0,66,-99.99,,,-99.99,,2013-04-15 10:23:00,
2013-04-15 06:33:00,45.0,35.0,30.18,East,86,1.0,-999.0,67,-99.99,,,-99.99,,2013-04-15 10:33:00,
2013-04-15 06:42:00,45.0,35.0,30.18,East,86,1.0,-999.0,67,-99.99,,,-99.99,,2013-04-15 10:42:00,
2013-04-15 06:52:00,45.0,35.0,30.18,East,86,0.0,-999.0,68,-99.99,,,-99.99,,2013-04-15 10:52:00,
2013-04-15 07:03:00,45.0,35.0,30.18,East,86,1.0,-999.0,68,-99.99,,,-99.99,,2013-04-15 11:03:00,
2013-04-15 07:13:00,45.0,35.0,30.18,East,86,1.0,-999.0,68,-99.99,,,-99.99,,2013-04-15 11:13:00,
2013-04-15 07:23:00,45.0,35.0,30.19,East,94,1.0,-999.0,67,-99.99,,,-99.99,,2013-04-15 11:23:00,
2013-04-15 07:33:00,45.0,35.0,30.20,East,85,1.0,-999.0,68,-99.99,,,-99.99,,2013-04-15 11:33:00,
2013-04-15 07:43:00,45.0,35.0,30.20,East,85,1.0,-999.0,68,-99.99,,,-99.99,,2013-04-15 11:43:00,
2013-04-15 07:53:00,46.0,36.0,30.21,ESE,112,2.0,-999.0,68,-99.99,,,-99.99,,2013-04-15 11:53:00,
2013-04-15 08:05:00,46.0,36.0,30.22,East,88,2.0,-999.0,68,-99.99,,,-99.99,,2013-04-15 12:05:00,
2013-04-15 08:14:00,46.0,36.0,30.22,East,88,2.0,-999.0,68,-99.99,,,-99.99,,2013-04-15 12:14:00,
2013-04-15 08:23:00,47.0,36.0,30.23,East,97,3.0,-999.0,66,-99.99,,,-99.99,,2013-04-15 12:23:00,
2013-04-15 08:34:00,47.0,36.0,30.24,East,89,3.0,-999.0,65,-99.99,,,-99.99,,2013-04-15 12:34:00,
2013-04-15 08:43:00,47.0,36.0,30.24,East,89,3.0,-999.0,65,-99.99,,,-99.99,,2013-04-15 12:43:00,
2013-04-15 08:53:00,47.0,36.0,30.25,SE,129,4.0,-999.0,65,-99.99,,,-99.99,,2013-04-15 12:53:00,
2013-04-15 09:05:00,48.0,37.0,30.25,SE,136,3.0,-999.0,66,-99.99,,,-99.99,,2013-04-15 13:05:00,
2013-04-15 09:13:00,48.0,37.0,30.25,SE,136,3.0,-999.0,66,-99.99,,,-99.99,,2013-04-15 13:13:00,
2013-04-15 09:23:00,48.0,38.0,30.24,ESE,113,2.0,-999.0,67,-99.99,,,-99.99,,2013-04-15 13:23:00,
2013-04-15 09:34:00,49.0,37.0,30.24,East,90,4.0,-999.0,63,-99.99,,,-99.99,,2013-04-15 13:34:00,
2013-04-15 09:43:00,49.0,37.0,30.24,East,90,4.0,-999.0,63,-99.99,,,-99.99,,2013-04-15 13:43:00,
2013-04-15 09:53:00,50.0,38.0,30.23,East,82,3.0,-999.0,63,-99.99,,,-99.99,,2013-04-15 13:53:00,
2013-04-15 10:05:00,51.0,38.0,30.23,East,93,5.0,-999.0,60,-99.99,,,-99.99,,2013-04-15 14:05:00,
2013-04-15 10:13:00,51.0,38.0,30.23,East,93,5.0,-999.0,60,-99.99,,,-99.99,,2013-04-15 14:13:00,
2013-04-15 10:34:00,52.0,36.0,30.23,East,89,6.0,-999.0,55,-99.99,,,-99.99,,2013-04-15 14:34:00,
2013-04-15 10:44:00,52.0,36.0,30.23,East,89,6.0,-999.0,55,-99.99,,,-99.99,,2013-04-15 14:44:00,
2013-04-15 10:54:00,53.0,37.0,30.23,SSE,150,6.0,-999.0,54,-99.99,,,-99.99,,2013-04-15 14:54:00,
2013-04-15 11:04:00,54.0,37.0,30.23,ESE,102,6.0,-999.0,53,-99.99,,,-99.99,,2013-04-15 15:04:00,
2013-04-15 11:13:00,54.0,37.0,30.23,ESE,102,6.0,-999.0,53,-99.99,,,-99.99,,2013-04-15 15:13:00,
2013-04-15 11:24:00,54.0,35.0,30.23,ESE,107,7.0,-999.0,49,-99.99,,,-99.99,,2013-04-15 15:24:00,
2013-04-15 11:35:00,55.0,37.0,30.23,SE,126,7.0,-999.0,51,-99.99,,,-99.99,,2013-04-15 15:35:00,
2013-04-15 11:44:00,55.0,37.0,30.23,SE,126,7.0,-999.0,51,-99.99,,,-99.99,,2013-04-15 15:44:00,
2013-04-15 11:54:00,56.0,37.0,30.23,ENE,65,6.0,-999.0,49,-99.99,,,-99.99,,2013-04-15 15:54:00,
2013-04-15 12:05:00,55.0,38.0,30.22,East,88,5.0,-999.0,52,-99.99,,,-99.99,,2013-04-15 16:05:00,
2013-04-15 12:14:00,55.0,38.0,30.22,East,88,5.0,-999.0,52,-99.99,,,-99.99,,2013-04-15 16:14:00,
2013-04-15 12:25:00,56.0,39.0,30.23,ESE,111,7.0,-999.0,52,-99.99,,,-99.99,,2013-04-15 16:25:00,
2013-04-15 12:34:00,56.0,39.0,30.22,SE,142,6.0,-999.0,52,-99.99,,,-99.99,,2013-04-15 16:34:00,
2013-04-15 12:44:00,56.0,39.0,30.22,SE,142,6.0,-999.0,52,-99.99,,,-99.99,,2013-04-15 16:44:00,
2013-04-15 12:53:00,56.0,40.0,30.22,East,92,6.0,-999.0,55,-99.99,,,-99.99,,2013-04-15 16:53:00,
2013-04-15 13:04:00,56.0,40.0,30.22,ESE,107,7.0,-999.0,54,-99.99,,,-99.99,,2013-04-15 17:04:00,
2013-04-15 13:15:00,56.0,40.0,30.22,ESE,107,7.0,-999.0,54,-99.99,,,-99.99,,2013-04-15 17:15:00,
2013-04-15 13:22:00,57.0,39.0,30.22,SSE,153,7.0,-999.0,51,-99.99,,,-99.99,,2013-04-15 17:22:00,
2013-04-15 13:33:00,57.0,38.0,30.22,SE,128,6.0,-999.0,49,-99.99,,,-99.99,,2013-04-15 17:33:00,
2013-04-15 13:43:00,57.0,38.0,30.22,SE,128,6.0,-999.0,49,-99.99,,,-99.99,,2013-04-15 17:43:00,
2013-04-15 13:52:00,57.0,40.0,30.22,SSE,157,8.0,-999.0,52,-99.99,,,-99.99,,2013-04-15 17:52:00,
2013-04-15 14:04:00,57.0,39.0,30.22,ESE,123,6.0,-999.0,50,-99.99,,,-99.99,,2013-04-15 18:04:00,
2013-04-15 14:13:00,57.0,39.0,30.22,ESE,123,6.0,-999.0,50,-99.99,,,-99.99,,2013-04-15 18:13:00,
2013-04-15 14:24:00,58.0,40.0,30.22,ESE,108,7.0,-999.0,52,-99.99,,,-99.99,,2013-04-15 18:24:00,
2013-04-15 14:33:00,58.0,41.0,30.21,East,98,6.0,-999.0,54,-99.99,,,-99.99,,2013-04-15 18:33:00,
2013-04-15 14:42:00,58.0,41.0,30.21,East,98,6.0,-999.0,54,-99.99,,,-99.99,,2013-04-15 18:42:00,
2013-04-15 14:52:00,59.0,41.0,30.22,ESE,110,6.0,-999.0,51,-99.99,,,-99.99,,2013-04-15 18:52:00,
2013-04-15 15:02:00,59.0,41.0,30.21,ESE,103,6.0,-999.0,51,-99.99,,,-99.99,,2013-04-15 19:02:00,
2013-04-15 15:12:00,59.0,41.0,30.21,ESE,103,6.0,-999.0,51,-99.99,,,-99.99,,2013-04-15 19:12:00,
2013-04-15 15:22:00,59.0,41.0,30.21,ESE,103,6.0,-999.0,51,-99.99,,,-99.99,,2013-04-15 19:22:00,
2013-04-15 15:38:00,56.0,40.0,30.21,ESE,122,6.0,-999.0,54,-99.99,,,-99.99,,2013-04-15 19:38:00,
2013-04-15 15:59:00,56.0,40.0,30.21,ESE,122,6.0,-999.0,54,-99.99,,,-99.99,,2013-04-15 19:59:00,
2013-04-15 16:02:00,55.0,40.0,30.21,East,92,6.0,-999.0,56,-99.99,,,-99.99,,2013-04-15 20:02:00,
2013-04-15 16:12:00,58.0,40.0,30.21,ESE,105,5.0,-999.0,52,-99.99,,,-99.99,,2013-04-15 20:12:00,
2013-04-15 16:22:00,58.0,41.0,30.20,ESE,111,6.0,-999.0,53,-99.99,,,-99.99,,2013-04-15 20:22:00,
2013-04-15 16:32:00,59.0,42.0,30.20,East,101,5.0,-999.0,53,-99.99,,,-99.99,,2013-04-15 20:32:00,
2013-04-15 16:42:00,59.0,42.0,30.20,East,101,5.0,-999.0,53,-99.99,,,-99.99,,2013-04-15 20:42:00,
2013-04-15 16:52:00,60.0,41.0,30.20,SE,142,5.0,-999.0,50,-99.99,,,-99.99,,2013-04-15 20:52:00,
2013-04-15 17:02:00,59.0,40.0,30.20,SSE,153,3.0,-999.0,50,-99.99,,,-99.99,,2013-04-15 21:02:00,
2013-04-15 17:12:00,59.0,40.0,30.20,SSE,153,3.0,-999.0,50,-99.99,,,-99.99,,2013-04-15 21:12:00,
2013-04-15 17:22:00,56.0,40.0,30.20,East,94,5.0,-999.0,54,-99.99,,,-99.99,,2013-04-15 21:22:00,
2013-04-15 17:33:00,57.0,42.0,30.20,SE,144,5.0,-999.0,57,-99.99,,,-99.99,,2013-04-15 21:33:00,
2013-04-15 17:43:00,57.0,42.0,30.20,SE,144,5.0,-999.0,57,-99.99,,,-99.99,,2013-04-15 21:43:00,
2013-04-15 17:53:00,57.0,39.0,30.21,South,182,3.0,-999.0,50,-99.99,,,-99.99,,2013-04-15 21:53:00,
2013-04-15 18:02:00,55.0,38.0,30.21,ESE,115,3.0,-999.0,53,-99.99,,,-99.99,,2013-04-15 22:02:00,
2013-04-15 18:13:00,55.0,38.0,30.21,ESE,115,3.0,-999.0,53,-99.99,,,-99.99,,2013-04-15 22:13:00,
2013-04-15 18:23:00,54.0,41.0,30.22,ESE,118,3.0,-999.0,61,-99.99,,,-99.99,,2013-04-15 22:23:00,
2013-04-15 18:33:00,53.0,41.0,30.22,ESE,122,3.0,-999.0,63,-99.99,,,-99.99,,2013-04-15 22:33:00,
2013-04-15 18:42:00,53.0,41.0,30.22,ESE,122,3.0,-999.0,63,-99.99,,,-99.99,,2013-04-15 22:42:00,
2013-04-15 18:52:00,53.0,41.0,30.22,ESE,116,3.0,-999.0,63,-99.99,,,-99.99,,2013-04-15 22:52:00,
2013-04-15 19:02:00,52.0,40.0,30.23,East,100,3.0,-999.0,63,-99.99,,,-99.99,,2013-04-15 23:02:00,
2013-04-15 19:12:00,52.0,40.0,30.23,East,100,3.0,-999.0,63,-99.99,,,-99.99,,2013-04-15 23:12:00,
2013-04-15 19:22:00,52.0,41.0,30.22,SE,128,2.0,-999.0,65,-99.99,,,-99.99,,2013-04-15 23:22:00,
2013-04-15 19:32:00,51.0,40.0,30.22,ESE,110,3.0,-999.0,67,-99.99,,,-99.99,,2013-04-15 23:32:00,
2013-04-15 19:42:00,51.0,40.0,30.22,ESE,110,3.0,-999.0,67,-99.99,,,-99.99,,2013-04-15 23:42:00,
2013-04-15 19:52:00,50.0,41.0,30.22,ESE,106,3.0,-999.0,70,-99.99,,,-99.99,,2013-04-15 23:52:00,
2013-04-15 20:03:00,50.0,42.0,30.23,ESE,104,4.0,-999.0,73,-99.99,,,-99.99,,2013-04-16 00:03:00,
2013-04-15 20:12:00,50.0,42.0,30.23,ESE,104,4.0,-999.0,73,-99.99,,,-99.99,,2013-04-16 00:12:00,
2013-04-15 20:22:00,50.0,42.0,30.23,SE,125,3.0,-999.0,74,-99.99,,,-99.99,,2013-04-16 00:22:00,
2013-04-15 20:32:00,49.0,41.0,30.24,SE,138,2.0,-999.0,75,-99.99,,,-99.99,,2013-04-16 00:32:00,
2013-04-15 20:42:00,49.0,41.0,30.24,SE,138,2.0,-999.0,75,-99.99,,,-99.99,,2013-04-16 00:42:00,
2013-04-15 20:52:00,49.0,42.0,30.25,East,82,1.0,-999.0,76,-99.99,,,-99.99,,2013-04-16 00:52:00,
2013-04-15 21:02:00,48.0,41.0,30.25,ESE,120,1.0,-999.0,78,-99.99,,,-99.99,,2013-04-16 01:02:00,
2013-04-15 21:12:00,48.0,41.0,30.25,ESE,120,1.0,-999.0,78,-99.99,,,-99.99,,2013-04-16 01:12:00,
2013-04-15 21:22:00,48.0,43.0,30.25,East,91,0.0,-999.0,82,-99.99,,,-99.99,,2013-04-16 01:22:00,
2013-04-15 21:32:00,47.0,41.0,30.25,East,91,0.0,-999.0,80,-99.99,,,-99.99,,2013-04-16 01:32:00,
2013-04-15 21:42:00,47.0,41.0,30.25,East,91,0.0,-999.0,80,-99.99,,,-99.99,,2013-04-16 01:42:00,
2013-04-15 21:52:00,47.0,42.0,30.26,East,94,0.0,-999.0,83,-99.99,,,-99.99,,2013-04-16 01:52:00,
2013-04-15 22:02:00,47.0,42.0,30.26,ESE,110,1.0,-999.0,83,-99.99,,,-99.99,,2013-04-16 02:02:00,
2013-04-15 22:12:00,47.0,42.0,30.26,ESE,110,1.0,-999.0,83,-99.99,,,-99.99,,2013-04-16 02:12:00,
2013-04-15 22:22:00,47.0,42.0,30.25,East,96,2.0,-999.0,83,-99.99,,,-99.99,,2013-04-16 02:22:00,
2013-04-15 22:32:00,48.0,43.0,30.25,ESE,106,3.0,-999.0,83,-99.99,,,-99.99,,2013-04-16 02:32:00,
2013-04-15 22:42:00,48.0,43.0,30.25,ESE,106,3.0,-999.0,83,-99.99,,,-99.99,,2013-04-16 02:42:00,
2013-04-15 22:52:00,48.0,43.0,30.25,ESE,121,2.0,-999.0,83,-99.99,,,-99.99,,2013-04-16 02:52:00,
2013-04-15 23:02:00,48.0,43.0,30.24,ESE,102,3.0,-999.0,84,-99.99,,,-99.99,,2013-04-16 03:02:00,
2013-04-15 23:12:00,48.0,43.0,30.24,ESE,102,3.0,-999.0,84,-99.99,,,-99.99,,2013-04-16 03:12:00,
2013-04-15 23:22:00,48.0,44.0,30.25,ESE,106,3.0,-999.0,85,-99.99,,,-99.99,,2013-04-16 03:22:00,
2013-04-15 23:33:00,48.0,44.0,30.25,SE,132,2.0,-999.0,85,-99.99,,,-99.99,,2013-04-16 03:33:00,
2013-04-15 23:43:00,48.0,44.0,30.25,SE,132,2.0,-999.0,85,-99.99,,,-99.99,,2013-04-16 03:43:00,
2013-04-15 23:52:00,48.0,44.0,30.25,ESE,111,2.0,-999.0,85,-99.99,,,-99.99,,2013-04-16 03:52:00,